Tyler, TX

1:56 AM CDT on May 26, 2017 (GMT -0500)
Tyler Pounds

Weather History for KTYR - August, 2013

Change the Weather History Date:

Saturday, August 10, 2013

  Actual Average Record
Temperature  
Mean Temperature 91 °F 84 °F  
Max Temperature 103 °F 94 °F 106 °F (1947)
Min Temperature 78 °F 74 °F 59 °F (1989)
Degree Days  
Heating Degree Days 0 0  
Month to date heating degree days 0 0  
Since 1 June heating degree days 0 0  
Since 1 July heating degree days 0 0  
Cooling Degree Days 26 19  
Month to date cooling degree days 238 190  
Year to date cooling degree days 1700 1548  
Since 1 June cooling degree days 1303 1179  
Growing Degree Days 40 (Base 50)    
Moisture  
Dew Point 68 °F    
Average Humidity 52    
Maximum Humidity 79    
Minimum Humidity 25    
Precipitation  
Precipitation 0.00 in 0.08 in 0.41 in (2002)
Month to date precipitation 0.00 0.77  
Year to date precipitation 19.38 27.17  
Snow  
Snow 0.00 in - - ()
Month to date snowfall 0.0  
Since 1 June snowfall 0.0  
Since 1 July snowfall 0.0  
Snow Depth 0.00 in    
Sea Level Pressure  
Sea Level Pressure 29.99 in    
Wind  
Wind Speed 7 mph (South)    
Max Wind Speed 23 mph    
Max Gust Speed 29 mph    
Visibility 10 miles    
Events      
T = Trace of Precipitation, MM = Missing Value Source: NWS Daily Summary

Daily Weather History Graph

Daily Weather History Graph

Search for Another Location

Airport or City:

Trip Planner

Search our weather history database for the weather conditions in past years. The results will help you decide how hot, cold, wet, or windy it might be!

Date:

Astronomy

Aug. 10, 2013 Rise Set
Actual Time 6:42 AM CDT 8:10 PM CDT
Civil Twilight 6:16 AM CDT 8:36 PM CDT
Nautical Twilight 5:44 AM CDT 9:08 PM CDT
Astronomical Twilight 5:12 AM CDT 9:40 PM CDT
Moon 10:13 AM CDT (8/10) 10:11 PM CDT (8/10)
Length of Visible Light 14h 20m
Length of Day
13h 28m
Waxing Crescent, 14% of the Moon is Illuminated
Aug 10
Waxing Crescent
Aug 14
First Quarter
Aug 20
Full
Aug 28
Last Quarter
Sep 5
New

Hourly Weather History & Observations

Time (CDT) Temp. Heat Index Dew Point Humidity Pressure Visibility Wind Dir Wind Speed Gust Speed Precip Events Conditions
12:53 AM 81.0 °F 82.2 °F 63.0 °F 54% 29.96 in 10.0 mi SE 5.8 mph - N/A   Clear
1:53 AM 84.0 °F 86.5 °F 66.9 °F 56% 29.97 in 10.0 mi SSE 8.1 mph - N/A   Clear
2:53 AM 81.0 °F 83.3 °F 66.9 °F 62% 29.98 in 10.0 mi South 6.9 mph - N/A   Clear
3:53 AM 82.0 °F 86.3 °F 71.1 °F 69% 29.98 in 10.0 mi South 9.2 mph - N/A   Clear
4:53 AM 80.1 °F 83.6 °F 71.1 °F 74% 29.99 in 10.0 mi South 5.8 mph - N/A   Clear
5:53 AM 79.0 °F - 71.1 °F 77% 29.99 in 10.0 mi South 6.9 mph - N/A   Clear
6:53 AM 78.1 °F - 71.1 °F 79% 30.00 in 10.0 mi South 3.5 mph - N/A   Clear
7:53 AM 82.0 °F 86.7 °F 72.0 °F 71% 30.01 in 10.0 mi South 5.8 mph - N/A   Clear
8:53 AM 84.9 °F 90.1 °F 71.1 °F 63% 30.03 in 10.0 mi WSW 8.1 mph - N/A   Clear
9:53 AM 88.0 °F 93.8 °F 71.1 °F 57% 30.03 in 10.0 mi West 5.8 mph - N/A   Clear
10:53 AM 91.9 °F 98.4 °F 71.1 °F 50% 30.04 in 10.0 mi Variable 5.8 mph - N/A   Clear
11:53 AM 95.0 °F 101.3 °F 70.0 °F 44% 30.04 in 10.0 mi WSW 8.1 mph - N/A   Clear
12:53 PM 97.0 °F 101.0 °F 66.9 °F 37% 30.02 in 10.0 mi SW 6.9 mph - N/A   Clear
1:53 PM 98.1 °F 101.2 °F 64.9 °F 34% 30.00 in 10.0 mi SSW 5.8 mph - N/A   Clear
2:53 PM 98.1 °F 100.7 °F 64.0 °F 33% 29.97 in 10.0 mi Calm Calm - N/A   Partly Cloudy
3:53 PM 100.0 °F 103.6 °F 64.9 °F 32% 29.94 in 10.0 mi Calm Calm - N/A   Clear
4:53 PM 100.9 °F 102.7 °F 62.1 °F 28% 29.93 in 10.0 mi WSW 9.2 mph - N/A   Partly Cloudy
5:53 PM 102.9 °F 103.0 °F 59.0 °F 23% 29.93 in 10.0 mi NNE 8.1 mph - N/A   Mostly Cloudy
6:53 PM 96.1 °F 99.9 °F 66.9 °F 38% 29.94 in 10.0 mi ESE 3.5 mph - N/A   Clear
7:53 PM 87.1 °F 89.9 °F 66.9 °F 51% 29.99 in 10.0 mi ESE 16.1 mph - N/A   Clear
8:53 PM 84.0 °F 86.5 °F 66.9 °F 56% 29.99 in 10.0 mi South 8.1 mph - N/A   Clear
9:53 PM 82.0 °F 85.5 °F 69.1 °F 65% 30.02 in 10.0 mi South 9.2 mph - N/A   Clear
10:53 PM 80.1 °F 83.2 °F 70.0 °F 71% 30.03 in 10.0 mi SSE 5.8 mph - N/A   Clear
11:53 PM 80.1 °F 83.2 °F 70.0 °F 71% 30.02 in 10.0 mi South 6.9 mph - N/A   Clear